Météo par heure à Alhos Vedros

Ce jour, 19 Octobre, Lundi

Heure Température Précipitation Vent Pression Humidité
00:00 +15°C° 0 mm 4 m/s 759 mmHg 80%
01:00 +15°C° 0 mm 5 m/s 759 mmHg 84%
02:00 +16°C° 0 mm 5 m/s 758 mmHg 88%
03:00 +16°C° 0 mm 5 m/s 758 mmHg 89%
04:00 +16°C° 0 mm 6 m/s 758 mmHg 89%
05:00 +16°C° 0 mm 6 m/s 758 mmHg 90%
06:00 +17°C° 0 mm 7 m/s 758 mmHg 85%
07:00 +20°C° 0 mm 8 m/s 758 mmHg 80%
08:00 +21°C° 0 mm 9 m/s 758 mmHg 75%
09:00 +22°C° 0 mm 10 m/s 757 mmHg 70%
10:00 +22°C° 0 mm 11 m/s 757 mmHg 66%
11:00 +23°C° 0 mm 12 m/s 756 mmHg 62%
12:00 +22°C° 1.8 mm 11 m/s 756 mmHg 71%
13:00 +21°C° 1.8 mm 11 m/s 756 mmHg 79%
14:00 +19°C° 1.8 mm 11 m/s 756 mmHg 88%
15:00 +19°C° 0.9 mm 9 m/s 756 mmHg 89%
16:00 +20°C° 0.9 mm 6 m/s 757 mmHg 90%
17:00 +20°C° 0.9 mm 4 m/s 757 mmHg 91%
18:00 +19°C° 1.4 mm 3 m/s 757 mmHg 91%
19:00 +19°C° 1.4 mm 2 m/s 757 mmHg 90%
20:00 +19°C° 1.4 mm 2 m/s 757 mmHg 90%
21:00 +20°C° 1.6 mm 1 m/s 757 mmHg 91%
22:00 +19°C° 1.6 mm 1 m/s 756 mmHg 92%
23:00 +19°C° 1.6 mm 1 m/s 756 mmHg 94%

Demain, 20 Octobre, Mardi

Heure Température Précipitation Vent Pression Humidité
00:00 +19°C° 0 mm 1 m/s 756 mmHg 94%
01:00 +19°C° 0 mm 1 m/s 755 mmHg 93%
02:00 +19°C° 0 mm 1 m/s 755 mmHg 93%
03:00 +18°C° 0 mm 2 m/s 754 mmHg 93%
04:00 +18°C° 0 mm 3 m/s 754 mmHg 92%
05:00 +18°C° 0 mm 3 m/s 753 mmHg 92%
06:00 +19°C° 3.3 mm 6 m/s 752 mmHg 92%
07:00 +19°C° 3.3 mm 9 m/s 751 mmHg 93%
08:00 +19°C° 3.3 mm 12 m/s 750 mmHg 93%
09:00 +19°C° 7.1 mm 12 m/s 750 mmHg 92%
10:00 +19°C° 7.1 mm 12 m/s 749 mmHg 92%
11:00 +19°C° 7.1 mm 12 m/s 749 mmHg 91%
12:00 +19°C° 3.1 mm 10 m/s 749 mmHg 89%
13:00 +18°C° 3.1 mm 8 m/s 750 mmHg 88%
14:00 +17°C° 3.1 mm 7 m/s 750 mmHg 87%
15:00 +17°C° 0.9 mm 7 m/s 750 mmHg 87%
16:00 +17°C° 0.9 mm 7 m/s 750 mmHg 88%
17:00 +17°C° 0.9 mm 7 m/s 750 mmHg 89%
18:00 +17°C° 0.5 mm 7 m/s 751 mmHg 88%
19:00 +17°C° 0.5 mm 7 m/s 752 mmHg 87%
20:00 +17°C° 0.5 mm 7 m/s 753 mmHg 87%
21:00 +17°C° 0.8 mm 7 m/s 752 mmHg 86%
22:00 +17°C° 0.8 mm 7 m/s 752 mmHg 85%
23:00 +17°C° 0.8 mm 7 m/s 752 mmHg 85%

Après-demain, 21 Octobre, Mercredi

Heure Température Précipitation Vent Pression Humidité
00:00 +17°C° 0.3 mm 7 m/s 752 mmHg 85%
01:00 +17°C° 0.3 mm 6 m/s 752 mmHg 86%
02:00 +17°C° 0.3 mm 6 m/s 752 mmHg 86%
03:00 +17°C° 0.3 mm 6 m/s 752 mmHg 87%
04:00 +16°C° 0.3 mm 5 m/s 752 mmHg 87%
05:00 +16°C° 0.3 mm 5 m/s 753 mmHg 88%
06:00 +17°C° 0.2 mm 5 m/s 753 mmHg 84%
07:00 +19°C° 0.2 mm 5 m/s 754 mmHg 80%
08:00 +19°C° 0.2 mm 5 m/s 754 mmHg 76%
09:00 +20°C° 0.1 mm 5 m/s 755 mmHg 72%
10:00 +21°C° 0.1 mm 4 m/s 755 mmHg 67%
11:00 +21°C° 0.1 mm 4 m/s 755 mmHg 63%
12:00 +21°C° 0.1 mm 4 m/s 755 mmHg 62%
13:00 +21°C° 0.1 mm 4 m/s 755 mmHg 61%
14:00 +21°C° 0.1 mm 5 m/s 755 mmHg 61%
15:00 +20°C° 0.2 mm 4 m/s 755 mmHg 66%
16:00 +19°C° 0.2 mm 4 m/s 755 mmHg 70%
17:00 +18°C° 0.2 mm 3 m/s 755 mmHg 75%
18:00 +18°C° 0.1 mm 3 m/s 756 mmHg 78%
19:00 +17°C° 0.1 mm 3 m/s 756 mmHg 81%
20:00 +17°C° 0.1 mm 2 m/s 756 mmHg 84%
21:00 +16°C° 0.1 mm 2 m/s 757 mmHg 84%
22:00 +16°C° 0.1 mm 2 m/s 757 mmHg 85%
23:00 +16°C° 0.1 mm 2 m/s 757 mmHg 86%

22 Octobre, Jeudi

Heure Température Précipitation Vent Pression Humidité
00:00 +16°C° 0.1 mm 2 m/s 757 mmHg 86%
01:00 +16°C° 0.1 mm 2 m/s 757 mmHg 87%
02:00 +15°C° 0.1 mm 2 m/s 757 mmHg 87%
03:00 +15°C° 0.1 mm 2 m/s 757 mmHg 88%
04:00 +15°C° 0.1 mm 2 m/s 757 mmHg 88%
05:00 +15°C° 0.1 mm 2 m/s 757 mmHg 88%
06:00 +16°C° 0.2 mm 2 m/s 757 mmHg 84%
07:00 +17°C° 0.2 mm 2 m/s 758 mmHg 80%
08:00 +18°C° 0.2 mm 2 m/s 758 mmHg 76%
09:00 +18°C° 0.2 mm 3 m/s 758 mmHg 70%
10:00 +19°C° 0.2 mm 3 m/s 758 mmHg 65%
11:00 +20°C° 0.2 mm 4 m/s 758 mmHg 59%
12:00 +20°C° 0.2 mm 4 m/s 758 mmHg 59%
13:00 +20°C° 0.2 mm 4 m/s 758 mmHg 59%
14:00 +20°C° 0.2 mm 5 m/s 758 mmHg 58%
15:00 +19°C° 0.2 mm 4 m/s 758 mmHg 64%
16:00 +18°C° 0.2 mm 4 m/s 758 mmHg 70%
17:00 +17°C° 0.2 mm 4 m/s 758 mmHg 76%
18:00 +17°C° 0.1 mm 3 m/s 759 mmHg 78%
19:00 +16°C° 0.1 mm 3 m/s 759 mmHg 80%
20:00 +16°C° 0.1 mm 3 m/s 760 mmHg 82%
21:00 +16°C° 0.1 mm 3 m/s 760 mmHg 83%
22:00 +16°C° 0.1 mm 3 m/s 760 mmHg 84%
23:00 +16°C° 0.1 mm 3 m/s 760 mmHg 86%

23 Octobre, Vendredi

Heure Température Précipitation Vent Pression Humidité
00:00 +16°C° 0.2 mm 3 m/s 760 mmHg 86%
01:00 +14°C° 0.2 mm 3 m/s 760 mmHg 87%
02:00 +14°C° 0.2 mm 3 m/s 761 mmHg 87%
03:00 +14°C° 0.2 mm 3 m/s 761 mmHg 88%
04:00 +14°C° 0.2 mm 3 m/s 761 mmHg 89%
05:00 +14°C° 0.2 mm 3 m/s 762 mmHg 89%
06:00 +16°C° 0.1 mm 3 m/s 762 mmHg 86%
07:00 +17°C° 0.1 mm 3 m/s 763 mmHg 82%
08:00 +18°C° 0.1 mm 3 m/s 763 mmHg 79%
09:00 +19°C° 0 mm 3 m/s 763 mmHg 72%
10:00 +20°C° 0 mm 3 m/s 764 mmHg 66%
11:00 +21°C° 0 mm 3 m/s 764 mmHg 60%
12:00 +21°C° 0 mm 4 m/s 764 mmHg 59%
13:00 +21°C° 0 mm 4 m/s 764 mmHg 58%
14:00 +21°C° 0 mm 5 m/s 764 mmHg 58%
15:00 +20°C° 0 mm 5 m/s 765 mmHg 64%
16:00 +17°C° 0 mm 5 m/s 765 mmHg 70%
17:00 +16°C° 0 mm 5 m/s 766 mmHg 76%
18:00 +15°C° 0 mm 5 m/s 766 mmHg 79%
19:00 +15°C° 0 mm 4 m/s 766 mmHg 83%
20:00 +14°C° 0 mm 4 m/s 767 mmHg 87%
21:00 +14°C° 0 mm 3 m/s 767 mmHg 88%
22:00 +14°C° 0 mm 3 m/s 767 mmHg 88%
23:00 +13°C° 0 mm 3 m/s 768 mmHg 89%

24 Octobre, Samedi

Heure Température Précipitation Vent Pression Humidité
00:00 +13°C° 0 mm 3 m/s 767 mmHg 89%
01:00 +13°C° 0 mm 3 m/s 767 mmHg 88%
02:00 +13°C° 0 mm 3 m/s 767 mmHg 88%
03:00 +12°C° 0 mm 3 m/s 767 mmHg 88%
04:00 +12°C° 0 mm 3 m/s 767 mmHg 88%
05:00 +12°C° 0 mm 3 m/s 768 mmHg 88%
06:00 +14°C° 0 mm 2 m/s 768 mmHg 82%
07:00 +15°C° 0 mm 2 m/s 768 mmHg 77%
08:00 +16°C° 0 mm 2 m/s 768 mmHg 71%
09:00 +17°C° 0 mm 2 m/s 768 mmHg 67%
10:00 +18°C° 0 mm 2 m/s 768 mmHg 62%
11:00 +19°C° 0 mm 2 m/s 768 mmHg 57%
12:00 +20°C° 0 mm 2 m/s 767 mmHg 57%
13:00 +20°C° 0 mm 2 m/s 767 mmHg 57%
14:00 +20°C° 0 mm 3 m/s 767 mmHg 57%
15:00 +19°C° 0 mm 3 m/s 766 mmHg 62%
16:00 +17°C° 0 mm 2 m/s 766 mmHg 67%
17:00 +16°C° 0 mm 2 m/s 766 mmHg 72%
18:00 +16°C° 0 mm 2 m/s 766 mmHg 74%
19:00 +15°C° 0 mm 2 m/s 766 mmHg 76%
20:00 +15°C° 0 mm 2 m/s 766 mmHg 78%
21:00 +15°C° 0 mm 2 m/s 766 mmHg 80%
22:00 +14°C° 0 mm 3 m/s 765 mmHg 81%
23:00 +14°C° 0 mm 3 m/s 765 mmHg 83%

25 Octobre, Dimanche

Heure Température Précipitation Vent Pression Humidité
00:00 +14°C° 0 mm 3 m/s 765 mmHg 83%
01:00 +14°C° 0 mm 3 m/s 764 mmHg 83%
02:00 +14°C° 0 mm 4 m/s 764 mmHg 83%
03:00 +15°C° 0 mm 4 m/s 764 mmHg 81%
04:00 +15°C° 0 mm 4 m/s 763 mmHg 79%
05:00 +17°C° 0 mm 4 m/s 763 mmHg 78%
06:00 +16°C° 0 mm 5 m/s 763 mmHg 76%
07:00 +17°C° 0 mm 5 m/s 763 mmHg 75%
08:00 +19°C° 0 mm 6 m/s 763 mmHg 74%
09:00 +17°C° 0.4 mm 6 m/s 763 mmHg 77%
10:00 +17°C° 0.4 mm 6 m/s 763 mmHg 80%
11:00 +17°C° 0.4 mm 6 m/s 763 mmHg 83%
12:00 +17°C° 0.2 mm 6 m/s 763 mmHg 78%
13:00 +17°C° 0.2 mm 6 m/s 763 mmHg 72%
14:00 +19°C° 0.2 mm 5 m/s 763 mmHg 66%
15:00 +17°C° 0 mm 5 m/s 763 mmHg 68%
16:00 +16°C° 0 mm 5 m/s 763 mmHg 70%
17:00 +15°C° 0 mm 5 m/s 764 mmHg 72%
18:00 +14°C° 0 mm 5 m/s 764 mmHg 74%
19:00 +14°C° 0 mm 5 m/s 765 mmHg 75%
20:00 +13°C° 0 mm 5 m/s 765 mmHg 76%
21:00 +13°C° 0 mm 5 m/s 766 mmHg 76%
22:00 +13°C° 0 mm 4 m/s 766 mmHg 76%
23:00 +12°C° 0 mm 4 m/s 766 mmHg 76%
Voir plus

Nous avons besoin de votre consentement

Meteoprog et ses fournisseurs de services peuvent stocker et accéder à des données personnelles telles que des cookies, des identifiants d'appareils ou d'autres technologies similaires sur votre appareil et traiter ces données pour personnaliser le contenu et les publicités, ainsi que pour fournir des fonctionnalités de médias sociaux et analyser le trafic.

  • Stocker et/ou accéder à des informations sur votre appareil

    Des cookies, des identifiants d'appareils ou d'autres informations peuvent être stockés ou accessibles sur votre appareil aux fins indiquées ci-dessus.

  • Annonces et contenus personnalisés, mesure des annonces et des contenus, connaissance de l'audience et développement de produits

    Les annonces et le contenu peuvent être personnalisés en fonction d'un profil. D'autres données peuvent être ajoutées pour mieux personnaliser les annonces et le contenu. Les performances des publicités et du contenu peuvent être mesurées. Il est possible d'obtenir des informations sur le public qui a vu les publicités et le contenu. Ces données peuvent être utilisées pour développer ou améliorer l'expérience de l'utilisateur, les systèmes et les logiciels.

En cliquant sur "J'accepte", vous autorisez l'utilisation de cookies, des identifiants d'appareils, des balises web ou d'autres technologies similaires. Vos paramètres peuvent être modifiés dans le navigateur de votre appareil.

Dans certains cas, des intérêts légitimes peuvent être invoqués plutôt qu'un consentement. Vous pouvez en savoir plus à ce sujet dans notre Politique de confidentialité et de cookies.